Regional Weather Roundup
Issued by NWS Huntsville, AL

Home | Current Version | Previous Version | Text Only | Print | Product List | Glossary On
Versions: 1 2 3 4 5 6 7 8 9 10 11 12 13 14 15 16 17 18 19 20 21 22 23 24 25 26 27 28 29
000
ASUS44 KHUN 301710
RWRHUN

WEATHER ROUNDUP FOR THE TENNESSEE VALLEY
NATIONAL WEATHER SERVICE HUNTSVILLE AL
1200 PM CDT THU OCT 30 2014

ALZ001>004-301800-
NORTHWEST ALABAMA

CITY           SKY/WX    TMP DP  RH WIND       PRES   REMARKS
COURTLAND HCN    N/A     59 N/A N/A NW3         N/A
RUSSELLVILLE     N/A     61 N/A N/A MISG        N/A
SHOALS AIRPORT SUNNY     61  36  39 CALM      30.15F
$$

ALZ005>007-016-301800-
NORTH CENTRAL ALABAMA

CITY           SKY/WX    TMP DP  RH WIND       PRES   REMARKS
CULLMAN AG STN   N/A     59 N/A N/A NE6         N/A
DECATUR AP     SUNNY     61  38  42 VRB6      30.13F
HUNTSVILLE AP  SUNNY     63  38  39 N5        30.12F
HUN NWS/UAH      N/A     60  34  37 NE6         N/A
MERIDIANVILLE  SUNNY     59  32  36 N5        30.13F
REDSTONE ARSN  SUNNY     60  36  40 NW7       30.12F
VINEMONT AP    FAIR      59  36  41 NE7       30.14F
$$

ALZ008>010-301800-
NORTHEAST ALABAMA

CITY           SKY/WX    TMP DP  RH WIND       PRES   REMARKS
ALBERTVILLE    SUNNY     59  43  55 N9        30.10F
FORT PAYNE     SUNNY     59  36  41 S3        30.10F
SCOTTSBORO AP  SUNNY     59  39  47 CALM      30.11F
SCOTTSBORO HCN   N/A     59 N/A N/A MISG        N/A
VALLEY HEAD      N/A     57 N/A N/A MISG        N/A
$$

TNZ076-096-097-301800-
SOUTHEASTERN MIDDLE TENNESSEE

CITY           SKY/WX    TMP DP  RH WIND       PRES   REMARKS
TULLAHOMA      SUNNY     55  36  47 VRB7      30.13F
WINCHESTER     SUNNY     55  39  54 VRB6      30.12F
$$

...SURROUNDING SITES...

CITY           SKY/WX    TMP DP  RH WIND       PRES   REMARKS
ATLANTA        MOSUNNY   64  40  41 N3        30.06F
ANNISTON       SUNNY     63  39  41 N8        30.11F
BIRMINGHAM     SUNNY     64  35  34 N8G17     30.14F
CHATTANOOGA    SUNNY     60  37  42 CALM      30.10F
CORINTH        FAIR      61  39  44 CALM      30.15F
DALTON         SUNNY     61  37  41 N7        30.09F
GADSDEN        SUNNY     61  37  41 CALM      30.11F
GOLDEN TRNGL   SUNNY     66  36  32 N12       30.14
HALEYVILLE     FAIR      60  36  40 N7        30.16F
JACKSON TN     SUNNY     61  36  39 CALM      30.15F
MEMPHIS        SUNNY     64  39  39 CALM      30.15F
MURFREESBORO   FAIR      57  40  53 SE3       30.14F
NASHVILLE      SUNNY     58  38  47 E5        30.15F
OXFORD MS      FAIR      63  36  36 N3        30.16F
ROME           SUNNY     62  42  47 W3        30.09F
SAVANNAH       SUNNY     61  39  44 VRB5      30.15F
TUPELO         SUNNY     63  36  36 MISG      30.15F
TUSCALOOSA     SUNNY     66  37  34 N9G17     30.14F
$$

...GULF COAST WEATHER...

CITY           SKY/WX    TMP DP  RH WIND       PRES   REMARKS
GULFPORT       SUNNY     71  41  33 NE14      30.09F
PASCAGOULA     SUNNY     71  42  35 NE14      30.09F
MOBILE         SUNNY     68  42  38 NE14      30.10F
GULF SHORES    SUNNY     70  44  39 N9        30.07F
PENSACOLA      SUNNY     72  44  36 N13G21    30.06F
DESTIN         SUNNY     72  45  37 N13       30.05F
PANAMA CITY    MOSUNNY   69  50  49 NE6       30.03F
APPALACHICOLA  PTSUNNY   75  54  47 N8        30.01F
$$




USA.gov is the U.S. government's official web portal to all federal, state and local government web resources and services.